Retour au catalogue

STARLINK-3748

ActifCommunicationsVLEO
NORAD 52267·PAYLOAD·🇺🇸 United States

Lancé Apr 21, 2022 depuis Cape Canaveral Space Force Station

Loading…

Prochains Passages (prochaines 24 heures)

TLE

FraisSource: CelesTrak SupGP

Époque: Sep 14, 2026, 22:16 UTC

1 52267C 22041G   26257.92826389 -.00019793  00000+0 -56637-3 0  2577
2 52267  53.1595 326.0918 0001245  84.3992 316.0547 15.35404339    12

Suivez STARLINK-3748 en temps réel avec AllMySat

Download on the App Store